Location: Ethel Rock
(53.4667°N, 4.5667°W)
Time: 05:01:52
(UTC+00:00)

Cosmos 2237 Rocket - Visible Passes

Search period start: 09 March 2021 00:00
Search period end: 19 March 2021 00:00
Orbit: 833 x 851 km, 71.0° (Epoch: 08 March)

Date Brightness Start Highest point End Pass type
(mag) Time Alt. Az. Time Alt. Az. Time Alt. Az.
09 Mar 4.9 00:29:13 10° NW 00:32:12 14° N 00:35:13 10° NNE visible
09 Mar 4.9 02:15:23 10° NNW 02:18:48 16° NNE 02:22:13 10° NE visible
09 Mar 3.7 03:59:23 10° NNW 04:04:38 36° NE 04:09:50 10° ESE visible
09 Mar 2.2 05:43:26 10° NW 05:49:02 60° WSW 05:54:35 10° SSE visible
09 Mar 3.5 18:59:28 10° SE 19:03:11 18° E 19:06:54 10° ENE visible
09 Mar 2.1 20:40:43 10° SSW 20:46:26 84° ESE 20:52:11 10° NNE visible
09 Mar 4.0 22:26:17 10° W 22:31:11 28° NW 22:36:06 10° NNE visible
10 Mar 4.9 00:14:14 10° NW 00:17:16 14° N 00:20:18 10° NNE visible
10 Mar 4.9 02:00:30 10° NNW 02:03:52 16° NNE 02:07:13 10° NE visible
10 Mar 3.7 03:44:31 10° NNW 03:49:44 35° NE 03:54:54 10° ESE visible
10 Mar 2.2 05:28:33 10° NW 05:34:11 62° WSW 05:39:45 10° SSE visible
10 Mar 3.6 18:44:47 10° SE 18:48:21 17° E 18:51:56 10° ENE visible
10 Mar 2.1 20:25:51 10° SSW 20:31:33 81° ESE 20:37:18 10° NNE visible
10 Mar 4.0 22:11:20 10° W 22:16:17 29° NW 22:21:13 10° NNE visible
10 Mar 4.9 23:59:16 10° NW 00:02:21 14° NNW 00:05:24 10° NNE visible
11 Mar 4.9 01:45:37 10° NNW 01:48:56 15° NNE 01:52:15 10° NE visible
11 Mar 3.8 03:29:39 10° NNW 03:34:50 34° NE 03:39:58 10° ESE visible
11 Mar 2.2 05:13:40 10° NW 05:19:19 65° WSW 05:24:54 10° SSE visible
11 Mar 2.1 20:10:59 10° SSW 20:16:41 79° ESE 20:22:25 10° NNE visible
11 Mar 4.0 21:56:23 10° W 22:01:22 30° NW 22:06:22 10° NNE visible
11 Mar 4.9 23:44:18 10° NW 23:47:25 15° NNW 23:50:31 10° NNE visible
12 Mar 4.9 01:30:44 10° NNW 01:34:00 15° NNE 01:37:16 10° NE visible
12 Mar 3.8 03:14:47 10° NNW 03:19:56 33° NE 03:25:01 10° ESE visible
12 Mar 2.1 04:58:47 10° NW 05:04:27 67° WSW 05:10:03 10° SSE visible
12 Mar 2.1 19:56:08 10° SSW 20:01:49 76° ESE 20:07:32 10° NE visible
12 Mar 4.0 21:41:27 10° W 21:46:27 31° NW 21:51:30 10° NNE visible
12 Mar 5.0 23:29:19 10° NW 23:32:28 15° NNW 23:35:37 10° NNE visible
13 Mar 4.9 01:15:51 10° NNW 01:19:04 15° NNE 01:22:17 10° NE visible
13 Mar 3.9 02:59:55 10° NNW 03:05:01 32° NE 03:10:05 10° ESE visible
13 Mar 2.1 04:43:54 10° NW 04:49:35 70° WSW 04:55:11 10° SSE visible
13 Mar 2.1 19:41:16 10° SSW 19:46:57 73° ESE 19:52:40 10° NE visible
13 Mar 3.9 21:26:30 10° WSW 21:31:33 31° NW 21:36:38 10° NNE visible
13 Mar 5.0 23:14:21 10° NW 23:17:32 15° NNW 23:20:43 10° NNE visible
14 Mar 4.9 01:00:57 10° NNW 01:04:08 15° NNE 01:07:19 10° NE visible
14 Mar 3.9 02:45:03 10° NNW 02:50:07 31° NE 02:55:08 10° ESE visible
14 Mar 2.1 04:29:01 10° NW 04:34:43 73° WSW 04:40:20 10° SSE visible
14 Mar 2.2 19:26:25 10° SSW 19:32:05 71° ESE 19:37:47 10° NE visible
14 Mar 3.9 21:11:33 10° WSW 21:16:39 32° NW 21:21:46 10° NNE visible
14 Mar 5.0 22:59:22 10° NW 23:02:36 15° NNW 23:05:50 10° NNE visible
15 Mar 4.9 00:46:03 10° NNW 00:49:12 15° NNE 00:52:20 10° NE visible
15 Mar 3.9 02:30:11 10° NNW 02:35:12 31° NE 02:40:11 10° E visible
15 Mar 2.1 04:14:09 10° NW 04:19:50 75° WSW 04:25:29 10° SSE visible
15 Mar 2.2 19:11:34 10° SSW 19:17:13 68° ESE 19:22:54 10° NE visible
15 Mar 3.9 20:56:36 10° WSW 21:01:45 33° NW 21:06:54 10° NNE visible
15 Mar 4.9 22:44:23 10° NW 22:47:40 15° NNW 22:50:56 10° NNE visible
16 Mar 4.9 00:31:10 10° NNW 00:34:16 15° NNE 00:37:21 10° NE visible
16 Mar 3.9 02:15:19 10° NNW 02:20:18 30° NE 02:25:14 10° E visible
16 Mar 2.0 03:59:16 10° NW 04:04:59 78° WSW 04:10:37 10° SSE visible
16 Mar 3.6 05:44:46 10° WNW 05:48:08 16° W 05:51:28 10° SW visible
16 Mar 2.2 18:56:43 10° SSW 19:02:21 65° ESE 19:08:01 10° NE visible
16 Mar 3.9 20:41:40 10° WSW 20:46:50 34° NW 20:52:01 10° NNE visible
16 Mar 4.9 22:29:24 10° NW 22:32:44 15° NNW 22:36:03 10° NNE visible
17 Mar 5.0 00:16:16 10° NNW 00:19:20 14° NNE 00:22:22 10° NE visible
17 Mar 4.0 02:00:27 10° NNW 02:05:23 29° NE 02:10:17 10° E visible
17 Mar 2.0 03:44:23 10° NNW 03:50:06 81° WSW 03:55:45 10° SSE visible
17 Mar 3.5 05:29:47 10° WNW 05:33:18 17° W 05:36:47 10° SW visible
17 Mar 3.8 20:26:44 10° WSW 20:31:56 35° NW 20:37:09 10° NNE visible
17 Mar 4.9 22:14:26 10° NW 22:17:48 16° NNW 22:21:09 10° NNE visible
18 Mar 5.0 00:01:23 10° NNW 00:04:23 14° N 00:07:24 10° NE visible
18 Mar 4.0 01:45:35 10° NNW 01:50:29 28° NE 01:55:20 10° E visible
18 Mar 2.0 03:29:30 10° NNW 03:35:14 84° WSW 03:40:53 10° SSE visible
18 Mar 3.5 05:14:49 10° WNW 05:18:28 18° W 05:22:05 10° SW visible
18 Mar 3.8 20:11:48 10° WSW 20:17:02 36° NW 20:22:17 10° NNE visible
18 Mar 4.9 21:59:27 10° NW 22:02:51 16° NNW 22:06:16 10° NNE visible
18 Mar 5.0 23:46:28 10° NNW 23:49:27 14° N 23:52:25 10° NE visible
